| time (UTC) | temp C | wind direction | speed KPH | gust KPH | rain 1hr cm | rain 24hr cm | rain mn cm | humidity % | barometer mb |
| 20260504151147 | 17 | 212 | 4.8 | 22.5 | 0.00 | 0.00 | 0.00 | 46 | 1004.0 |
| 20260504150145 | 16 | 229 | 8.0 | 19.3 | 0.00 | 0.00 | 0.00 | 47 | 1004.1 |
| 20260504141143 | 15 | 194 | 4.8 | 22.5 | 0.00 | 0.00 | 0.00 | 49 | 1004.2 |
| 20260504140642 | 15 | 159 | 6.4 | 22.5 | 0.00 | 0.00 | 0.00 | 47 | 1003.7 |
| 20260504140141 | 15 | 270 | 6.4 | 22.5 | 0.00 | 0.00 | 0.00 | 48 | 1003.8 |
| 20260504130639 | 13 | 286 | 3.2 | 11.3 | 0.00 | 0.00 | 0.00 | 54 | 1004.5 |
| 20260504130139 | 13 | 14 | 4.8 | 16.1 | 0.00 | 0.00 | 0.00 | 57 | 1004.5 |
| 20260504120136 | 10 | 132 | 1.6 | 12.9 | 0.00 | 0.00 | 0.00 | 70 | 1004.8 |
| 20260504110633 | 3 | 155 | 0.0 | 3.2 | 0.00 | 0.00 | 0.00 | 94 | 1005.0 |
| 20260504110134 | 3 | 127 | 0.0 | 1.6 | 0.00 | 0.00 | 0.00 | 95 | 1005.0 |
| 20260504100125 | 4 | 157 | 0.0 | 1.6 | 0.00 | 0.00 | 0.00 | 93 | 1004.7 |
| 20260504090117 | 5 | 222 | 1.6 | 4.8 | 0.00 | 0.00 | 0.00 | 92 | 1004.7 |
| 20260504081846 | 5 | 220 | 1.6 | 3.2 | 0.00 | 0.00 | 0.00 | 90 | 1004.6 |
| 20260504081113 | 5 | 201 | 1.6 | 3.2 | 0.00 | 0.00 | 0.00 | 91 | 1004.6 |
| 20260504080614 | 5 | 146 | 0.0 | 3.2 | 0.00 | 0.00 | 0.00 | 92 | 1004.6 |
| 20260504080111 | 5 | 160 | 0.0 | 3.2 | 0.00 | 0.00 | 0.00 | 91 | 1004.7 |
| 20260504070111 | 5 | 170 | 0.0 | 3.2 | 0.00 | 0.00 | 0.00 | 92 | 1004.5 |
| 20260504050552 | 3 | 148 | 0.0 | 3.2 | 0.00 | 0.00 | 0.00 | 83 | 1005.1 |
| 20260504045821 | 3 | 141 | 0.0 | 1.6 | 0.00 | 0.00 | 0.00 | 82 | 1005.0 |
| 20260504045050 | 3 | 113 | 0.0 | 1.6 | 0.00 | 0.00 | 0.00 | 83 | 1005.1 |
| 20260504044550 | 3 | 179 | 0.0 | 1.6 | 0.00 | 0.00 | 0.00 | 83 | 1005.1 |
| 20260504044050 | 3 | 206 | 0.0 | 1.6 | 0.00 | 0.00 | 0.00 | 83 | 1005.2 |
| 20260504043548 | 3 | 207 | 0.0 | 1.6 | 0.00 | 0.00 | 0.00 | 83 | 1005.2 |
| 20260504043046 | 2 | 207 | 0.0 | 1.6 | 0.00 | 0.00 | 0.00 | 82 | 1005.2 |
| 20260504042547 | 2 | 207 | 0.0 | 1.6 | 0.00 | 0.00 | 0.00 | 82 | 1005.2 |
| 20260504042044 | 2 | 207 | 0.0 | 1.6 | 0.00 | 0.00 | 0.00 | 83 | 1005.3 |
| 20260504041545 | 2 | 213 | 0.0 | 1.6 | 0.00 | 0.00 | 0.00 | 82 | 1005.2 |
| 20260504041044 | 2 | 208 | 0.0 | 1.6 | 0.00 | 0.00 | 0.00 | 82 | 1005.2 |
| 20260504040550 | 2 | 219 | 0.0 | 1.6 | 0.00 | 0.00 | 0.00 | 82 | 1005.2 |
| 20260504040046 | 2 | 144 | 0.0 | 1.6 | 0.00 | 0.00 | 0.00 | 82 | 1005.2 |
| 20260504035815 | 1 | 156 | 0.0 | 1.6 | 0.00 | 0.00 | 0.00 | 82 | 1005.3 |
| 20260504035044 | 1 | 146 | 0.0 | 1.6 | 0.00 | 0.00 | 0.00 | 82 | 1005.3 |
| 20260504034544 | 1 | 186 | 0.0 | 1.6 | 0.00 | 0.00 | 0.00 | 81 | 1005.1 |
| 20260504034044 | 1 | 158 | 0.0 | 1.6 | 0.00 | 0.00 | 0.00 | 81 | 1005.2 |
| 20260504033813 | 1 | 158 | 0.0 | 1.6 | 0.00 | 0.00 | 0.00 | 80 | 1005.2 |
| 20260504033042 | 1 | 206 | 1.6 | 3.2 | 0.00 | 0.00 | 0.00 | 81 | 1005.3 |
| 20260504032543 | 1 | 213 | 1.6 | 3.2 | 0.00 | 0.00 | 0.00 | 81 | 1005.2 |
| 20260504032042 | 1 | 163 | 0.0 | 3.2 | 0.00 | 0.00 | 0.00 | 81 | 1005.3 |
| 20260504031543 | 1 | 158 | 0.0 | 3.2 | 0.00 | 0.00 | 0.00 | 81 | 1005.2 |
| 20260504031042 | 1 | 168 | 0.0 | 3.2 | 0.00 | 0.00 | 0.00 | 82 | 1005.2 |
| 20260504030548 | 0 | 169 | 0.0 | 1.6 | 0.00 | 0.00 | 0.00 | 83 | 1005.2 |
| 20260504030542 | 0 | 172 | 0.0 | 1.6 | 0.00 | 0.00 | 0.00 | 83 | 1005.2 |
| 20260504025542 | 0 | 215 | 0.0 | 1.6 | 0.00 | 0.00 | 0.00 | 84 | 1005.4 |
| 20260504025042 | 0 | 207 | 0.0 | 1.6 | 0.00 | 0.00 | 0.00 | 84 | 1005.5 |
| 20260504024542 | 0 | 164 | 0.0 | 1.6 | 0.00 | 0.00 | 0.00 | 84 | 1005.4 |
| 20260504024042 | 0 | 206 | 0.0 | 1.6 | 0.00 | 0.00 | 0.00 | 84 | 1005.5 |
| 20260504023542 | 0 | 158 | 0.0 | 1.6 | 0.00 | 0.00 | 0.00 | 83 | 1005.4 |
| 20260504023043 | 0 | 163 | 0.0 | 3.2 | 0.00 | 0.00 | 0.00 | 83 | 1005.5 |
| 20260504022542 | 0 | 155 | 1.6 | 3.2 | 0.00 | 0.00 | 0.00 | 82 | 1005.6 |
| 20260504022040 | 0 | 170 | 0.0 | 3.2 | 0.00 | 0.00 | 0.00 | 82 | 1005.5 |
| 20260504021540 | 0 | 196 | 0.0 | 3.2 | 0.00 | 0.00 | 0.00 | 82 | 1005.5 |
| 20260504021040 | 0 | 199 | 0.0 | 3.2 | 0.00 | 0.00 | 0.00 | 82 | 1005.5 |
| 20260504020539 | 0 | 145 | 0.0 | 1.6 | 0.00 | 0.00 | 0.00 | 81 | 1005.5 |
| 20260504020038 | 1 | 197 | 0.0 | 3.2 | 0.00 | 0.00 | 0.00 | 81 | 1005.4 |
| 20260504015538 | 1 | 149 | 0.0 | 3.2 | 0.00 | 0.00 | 0.00 | 81 | 1005.5 |
| 20260504015038 | 1 | 154 | 0.0 | 1.6 | 0.00 | 0.00 | 0.00 | 80 | 1005.4 |
| 20260504014538 | 1 | 196 | 0.0 | 1.6 | 0.00 | 0.00 | 0.00 | 80 | 1005.3 |
| 20260504014038 | 1 | 191 | 0.0 | 1.6 | 0.00 | 0.00 | 0.00 | 79 | 1005.3 |
| 20260504013538 | 1 | 161 | 0.0 | 1.6 | 0.00 | 0.00 | 0.00 | 78 | 1005.2 |
| 20260504013038 | 1 | 201 | 0.0 | 3.2 | 0.00 | 0.00 | 0.00 | 78 | 1005.3 |
| 20260504012538 | 1 | 165 | 0.0 | 3.2 | 0.00 | 0.00 | 0.00 | 78 | 1005.2 |
| 20260504012308 | 1 | 153 | 0.0 | 0.0 | 0.00 | 0.00 | 0.00 | 77 | 1005.2 |
| 20260504011536 | 2 | 170 | 0.0 | 1.6 | 0.00 | 0.00 | 0.00 | 76 | 1005.2 |
| 20260504011037 | 2 | 156 | 0.0 | 1.6 | 0.00 | 0.00 | 0.00 | 76 | 1005.1 |
| 20260504010806 | 2 | 201 | 1.6 | 4.8 | 0.00 | 0.00 | 0.00 | 75 | 1004.9 |
| 20260504010036 | 2 | 200 | 1.6 | 4.8 | 0.00 | 0.00 | 0.00 | 75 | 1004.9 |
| 20260504005536 | 2 | 168 | 0.0 | 1.6 | 0.00 | 0.00 | 0.00 | 74 | 1004.8 |
| 20260504005036 | 2 | 207 | 0.0 | 1.6 | 0.00 | 0.00 | 0.00 | 74 | 1004.7 |
| 20260504004536 | 2 | 163 | 0.0 | 0.0 | 0.00 | 0.00 | 0.00 | 74 | 1004.7 |
| 20260504004036 | 3 | 154 | 0.0 | 0.0 | 0.00 | 0.00 | 0.00 | 74 | 1004.6 |
| 20260504003536 | 3 | 154 | 0.0 | 0.0 | 0.00 | 0.00 | 0.00 | 73 | 1004.6 |
| 20260504003036 | 3 | 154 | 0.0 | 0.0 | 0.00 | 0.00 | 0.00 | 72 | 1004.6 |
| 20260504002534 | 3 | 154 | 0.0 | 0.0 | 0.00 | 0.00 | 0.00 | 72 | 1004.5 |
| 20260504002034 | 3 | 154 | 0.0 | 0.0 | 0.00 | 0.00 | 0.00 | 72 | 1004.5 |
| 20260504001534 | 3 | 154 | 0.0 | 0.0 | 0.00 | 0.00 | 0.00 | 71 | 1004.3 |
| 20260504001034 | 4 | 154 | 0.0 | 0.0 | 0.00 | 0.00 | 0.00 | 70 | 1004.1 |
| 20260504000534 | 4 | 154 | 0.0 | 0.0 | 0.00 | 0.00 | 0.00 | 69 | 1004.0 |
| 20260504000035 | 5 | 154 | 0.0 | 0.0 | 0.00 | 0.00 | 0.00 | 68 | 1004.0 |
| 20260503235534 | 5 | 154 | 0.0 | 0.0 | 0.00 | 0.00 | 0.00 | 66 | 1003.9 |
| 20260503235033 | 5 | 154 | 0.0 | 0.0 | 0.00 | 0.00 | 0.00 | 64 | 1004.0 |
| 20260503234534 | 5 | 165 | 0.0 | 1.6 | 0.00 | 0.00 | 0.00 | 64 | 1003.9 |
| 20260503234304 | 6 | 266 | 0.0 | 1.6 | 0.00 | 0.00 | 0.00 | 61 | 1003.9 |
| 20260503233532 | 6 | 236 | 0.0 | 1.6 | 0.00 | 0.00 | 0.00 | 62 | 1003.8 |
| 20260503233032 | 7 | 226 | 0.0 | 3.2 | 0.00 | 0.00 | 0.00 | 58 | 1003.7 |
| 20260503232532 | 7 | 215 | 1.6 | 4.8 | 0.00 | 0.00 | 0.00 | 54 | 1003.7 |
| 20260503232032 | 7 | 217 | 1.6 | 4.8 | 0.00 | 0.00 | 0.00 | 49 | 1003.7 |
| 20260503231532 | 8 | 143 | 1.6 | 11.3 | 0.00 | 0.00 | 0.00 | 48 | 1003.7 |
| 20260503231032 | 8 | 325 | 3.2 | 12.9 | 0.00 | 0.00 | 0.00 | 46 | 1003.6 |
| 20260503230532 | 8 | 203 | 1.6 | 12.9 | 0.00 | 0.00 | 0.00 | 47 | 1003.7 |
| 20260503230032 | 8 | 108 | 3.2 | 19.3 | 0.00 | 0.00 | 0.00 | 47 | 1003.7 |
| 20260503225532 | 8 | 247 | 4.8 | 19.3 | 0.00 | 0.00 | 0.00 | 46 | 1003.7 |
| 20260503225037 | 8 | 101 | 3.2 | 19.3 | 0.00 | 0.00 | 0.00 | 46 | 1003.6 |
| 20260503225032 | 8 | 119 | 3.2 | 11.3 | 0.00 | 0.00 | 0.00 | 46 | 1003.7 |
| 20260503224032 | 8 | 28 | 1.6 | 19.3 | 0.00 | 0.00 | 0.00 | 47 | 1003.7 |
| 20260503223802 | 8 | 336 | 1.6 | 9.7 | 0.00 | 0.00 | 0.00 | 47 | 1003.6 |
| 20260503223303 | 8 | 23 | 1.6 | 9.7 | 0.00 | 0.00 | 0.00 | 48 | 1003.6 |
| 20260503222534 | 8 | 276 | 3.2 | 11.3 | 0.00 | 0.00 | 0.00 | 48 | 1003.7 |
| 20260503222033 | 9 | 343 | 3.2 | 11.3 | 0.00 | 0.00 | 0.00 | 47 | 1003.7 |
| 20260503221533 | 9 | 27 | 3.2 | 9.7 | 0.00 | 0.00 | 0.00 | 47 | 1003.7 |
| 20260503221029 | 9 | 26 | 3.2 | 8.0 | 0.00 | 0.00 | 0.00 | 47 | 1003.7 |
| 20260503220530 | 9 | 287 | 4.8 | 11.3 | 0.00 | 0.00 | 0.00 | 47 | 1003.7 |
| 20260503220029 | 9 | 10 | 4.8 | 12.9 | 0.00 | 0.00 | 0.00 | 46 | 1003.6 |
| 20260503215530 | 9 | 191 | 4.8 | 17.7 | 0.00 | 0.00 | 0.00 | 47 | 1003.6 |
| 20260503215028 | 9 | 60 | 6.4 | 17.7 | 0.00 | 0.00 | 0.00 | 47 | 1003.7 |
| 20260503214528 | 9 | 8 | 4.8 | 17.7 | 0.00 | 0.00 | 0.00 | 49 | 1003.6 |
| 20260503214027 | 8 | 168 | 3.2 | 17.7 | 0.00 | 0.00 | 0.00 | 48 | 1003.6 |
| 20260503213528 | 8 | 33 | 1.6 | 4.8 | 0.00 | 0.00 | 0.00 | 50 | 1003.6 |
| 20260503213027 | 8 | 23 | 1.6 | 9.7 | 0.00 | 0.00 | 0.00 | 49 | 1003.6 |
| 20260503212528 | 8 | 128 | 4.8 | 14.5 | 0.00 | 0.00 | 0.00 | 48 | 1003.6 |
| 20260503212259 | 8 | 55 | 6.4 | 20.9 | 0.00 | 0.00 | 0.00 | 49 | 1003.5 |
| 20260503211528 | 8 | 15 | 8.0 | 20.9 | 0.00 | 0.00 | 0.00 | 48 | 1003.6 |
| 20260503211027 | 8 | 51 | 8.0 | 20.9 | 0.00 | 0.00 | 0.00 | 48 | 1003.5 |
| 20260503210528 | 9 | 336 | 6.4 | 14.5 | 0.00 | 0.00 | 0.00 | 47 | 1003.6 |
| 20260503210027 | 9 | 144 | 4.8 | 17.7 | 0.00 | 0.00 | 0.00 | 47 | 1003.5 |
| 20260503205528 | 9 | 217 | 4.8 | 17.7 | 0.00 | 0.00 | 0.00 | 48 | 1003.4 |
| 20260503205028 | 9 | 291 | 4.8 | 11.3 | 0.00 | 0.00 | 0.00 | 51 | 1003.6 |
| 20260503204525 | 9 | 331 | 6.4 | 17.7 | 0.00 | 0.00 | 0.00 | 50 | 1003.5 |
| 20260503204026 | 8 | 59 | 8.0 | 29.0 | 0.00 | 0.00 | 0.00 | 48 | 1003.5 |
| 20260503203526 | 8 | 58 | 8.0 | 29.0 | 0.00 | 0.00 | 0.00 | 49 | 1003.5 |
| 20260503203026 | 8 | 73 | 6.4 | 22.5 | 0.00 | 0.00 | 0.00 | 48 | 1003.6 |
| 20260503202525 | 8 | 21 | 6.4 | 22.5 | 0.00 | 0.00 | 0.00 | 50 | 1003.4 |
| 20260503202026 | 8 | 117 | 8.0 | 22.5 | 0.00 | 0.00 | 0.00 | 49 | 1003.4 |
| 20260503201526 | 8 | 196 | 9.7 | 22.5 | 0.00 | 0.00 | 0.00 | 48 | 1003.4 |
| 20260503201025 | 9 | 359 | 8.0 | 19.3 | 0.00 | 0.00 | 0.00 | 48 | 1003.4 |
| 20260503200523 | 8 | 67 | 4.8 | 14.5 | 0.00 | 0.00 | 0.00 | 50 | 1003.4 |
| 20260503200024 | 8 | 172 | 4.8 | 16.1 | 0.00 | 0.00 | 0.00 | 49 | 1003.7 |
| 20260503195524 | 8 | 279 | 3.2 | 16.1 | 0.00 | 0.00 | 0.00 | 50 | 1003.7 |
| 20260503195023 | 8 | 334 | 6.4 | 17.7 | 0.00 | 0.00 | 0.00 | 50 | 1003.7 |
| 20260503194524 | 8 | 241 | 8.0 | 20.9 | 0.00 | 0.00 | 0.00 | 49 | 1003.6 |
| 20260503194253 | 8 | 332 | 6.4 | 20.9 | 0.00 | 0.00 | 0.00 | 50 | 1003.8 |
| 20260503193522 | 8 | 291 | 6.4 | 17.7 | 0.00 | 0.00 | 0.00 | 50 | 1003.7 |
| 20260503193021 | 8 | 75 | 8.0 | 30.6 | 0.00 | 0.00 | 0.00 | 50 | 1003.8 |
| 20260503192520 | 8 | 109 | 9.7 | 30.6 | 0.00 | 0.00 | 0.00 | 51 | 1004.0 |
| 20260503192019 | 8 | 93 | 9.7 | 22.5 | 0.00 | 0.00 | 0.00 | 49 | 1004.0 |
| 20260503191751 | 8 | 324 | 8.0 | 20.9 | 0.00 | 0.00 | 0.00 | 48 | 1004.1 |
| 20260503191019 | 8 | 39 | 8.0 | 20.9 | 0.00 | 0.00 | 0.00 | 48 | 1003.9 |
| 20260503190520 | 8 | 186 | 8.0 | 25.7 | 0.00 | 0.00 | 0.00 | 47 | 1004.0 |
| 20260503190019 | 8 | 122 | 6.4 | 25.7 | 0.00 | 0.00 | 0.00 | 49 | 1004.0 |
| 20260503185751 | 8 | 322 | 8.0 | 24.1 | 0.00 | 0.00 | 0.00 | 50 | 1003.9 |
| 20260503185020 | 8 | 264 | 8.0 | 24.1 | 0.00 | 0.00 | 0.00 | 48 | 1003.8 |
| 20260503184519 | 8 | 61 | 4.8 | 22.5 | 0.00 | 0.00 | 0.00 | 48 | 1003.9 |
| 20260503184019 | 8 | 101 | 6.4 | 20.9 | 0.00 | 0.00 | 0.00 | 48 | 1003.8 |
| 20260503183520 | 8 | 267 | 8.0 | 20.9 | 0.00 | 0.00 | 0.00 | 48 | 1003.8 |
| 20260503183019 | 8 | 50 | 8.0 | 24.1 | 0.00 | 0.00 | 0.00 | 48 | 1003.9 |
| 20260503182520 | 9 | 128 | 8.0 | 29.0 | 0.00 | 0.00 | 0.00 | 47 | 1003.8 |
| 20260503182019 | 9 | 328 | 9.7 | 29.0 | 0.00 | 0.00 | 0.00 | 48 | 1003.6 |
| 20260503181520 | 8 | 349 | 8.0 | 25.7 | 0.00 | 0.00 | 0.00 | 50 | 1003.8 |
| 20260503181019 | 8 | 288 | 8.0 | 25.7 | 0.00 | 0.00 | 0.00 | 50 | 1003.9 |
| 20260503180520 | 8 | 279 | 9.7 | 25.7 | 0.00 | 0.00 | 0.00 | 51 | 1003.8 |
| 20260503180019 | 7 | 0 | 8.0 | 24.1 | 0.00 | 0.00 | 0.00 | 51 | 1004.0 |
| 20260503175520 | 7 | 100 | 9.7 | 20.9 | 0.00 | 0.00 | 0.00 | 51 | 1004.1 |
| 20260503175019 | 8 | 291 | 9.7 | 20.9 | 0.00 | 0.00 | 0.00 | 52 | 1003.9 |
| 20260503174520 | 8 | 143 | 8.0 | 20.9 | 0.00 | 0.00 | 0.00 | 51 | 1003.8 |
| 20260503174249 | 8 | 0 | 6.4 | 19.3 | 0.00 | 0.00 | 0.00 | 52 | 1003.8 |
| 20260503173518 | 8 | 168 | 8.0 | 19.3 | 0.00 | 0.00 | 0.00 | 52 | 1003.8 |
| 20260503173017 | 8 | 144 | 9.7 | 24.1 | 0.00 | 0.00 | 0.00 | 53 | 1003.8 |
| 20260503172746 | 8 | 45 | 9.7 | 27.4 | 0.00 | 0.00 | 0.00 | 52 | 1003.8 |
| 20260503172013 | 8 | 83 | 9.7 | 27.4 | 0.00 | 0.00 | 0.00 | 51 | 1003.9 |
| 20260503171514 | 8 | 35 | 11.3 | 35.4 | 0.00 | 0.00 | 0.00 | 52 | 1003.8 |
| 20260503171013 | 8 | 272 | 12.9 | 41.8 | 0.00 | 0.00 | 0.00 | 51 | 1003.9 |
| 20260503170514 | 8 | 7 | 9.7 | 41.8 | 0.00 | 0.00 | 0.00 | 51 | 1003.9 |